Zurück zum Katalog

TITAN 3C TRANSTAGE R/B

AktivMEO
NORAD 11147·ROCKET BODY·🇺🇸 United States

Gestartet Dec 14, 1978 von Cape Canaveral Space Force Station

Loading…

Nächste Überflüge (nächste 24 Stunden)

TLE

AktuellSource: Space-Track

Epoche: Sep 14, 2026, 13:24 UTC

1 11147U 78113D   26257.55902416 -.00000166  00000-0  00000-0 0  9992
2 11147  10.5589 304.9020 0254043  71.0869  94.8790  0.93755770115200

Verfolge TITAN 3C TRANSTAGE R/B in Echtzeit mit AllMySat

Download on the App Store